Overview Statistics Trail Chart Weather Telemetry Raw packets
 

This is the latest recevied weather packets stored in our database for station/object OE3APM-13. If no packets are shown the sender has not sent any weather packets the latest 10 day(s).

<< 3 4 5 6 7 8 9 >>
Time Temp. Humidity Pressure Rain* Wind** Luminosity Snow
1788588814 13.89° C 88% 1020.5 hPa 1.52 mm - 25 W/m² -
1788588513 13.89° C 88% 1020.6 hPa 1.52 mm - 21 W/m² -
1788588212 13.89° C 87% 1020.4 hPa 1.52 mm - 18 W/m² -
1788587913 13.89° C 87% 1020.7 hPa 1.52 mm - 0 W/m² -
1788587612 13.89° C 87% 1020.7 hPa 1.27 mm - 0 W/m² -
1788587311 14.44° C 87% 1021.2 hPa 1.02 mm - 7 W/m² -
1788587004 14.44° C 87% 1021.2 hPa 0.76 mm - 21 W/m² -
1788586703 14.44° C 86% 1020.9 hPa 0.51 mm - 11 W/m² -
1788586402 14.44° C 86% 1020.9 hPa 0.51 mm - 0 W/m² -
1788586103 14.44° C 86% 1020.8 hPa 0.51 mm - 0 W/m² -
1788585803 14.44° C 86% 1020.8 hPa 0.25 mm - 0 W/m² -
1788585502 14.44° C 86% 1020.6 hPa 0 mm - 0 W/m² -
1788585203 14.44° C 86% 1019.9 hPa 0 mm - 0 W/m² -
1788584906 14.44° C 86% 1019.9 hPa 0 mm - 0 W/m² -
1788584602 14.44° C 85% 1020.2 hPa 0.51 mm - 0 W/m² -
1788584303 14.44° C 85% 1019.9 hPa 0.51 mm - 0 W/m² -
1788584005 14.44° C 85% 1020.2 hPa 0.51 mm - 0 W/m² -
1788583709 14.44° C 84% 1019.9 hPa 0.76 mm - 0 W/m² -
1788583403 15° C 84% 1019.8 hPa 0.76 mm - 0 W/m² -
1788583102 15° C 84% 1019.4 hPa 0.76 mm - 0 W/m² -
1788582796 15° C 84% 1019.3 hPa 0.76 mm - 0 W/m² -
1788582492 15° C 83% 1019.2 hPa 0.76 mm - 0 W/m² -
1788582189 15° C 83% 1019.4 hPa 0.76 mm - 0 W/m² -
1788581888 15.56° C 82% 1019.3 hPa 0.76 mm - 0 W/m² -
1788581588 15.56° C 81% 1019.2 hPa 0.76 mm - 0 W/m² -

* Rain latest hour (hover to see other rain measurements)
** Current wind speed in m/s (hover to see current wind gust speed)